Location: Grasslands National Park East Block
(49.0708°N, 106.5295°W)
Time: 07:57:34
(UTC-06:00)

Vanguard 1 - All Passes

Search period start: 22 September 2019 00:00
Search period end: 02 October 2019 00:00
Orbit: 654 x 3830 km, 34.3° (Epoch: 21 September)

Date Brightness Start Highest point End Pass type
(mag) Time Alt. Az. Time Alt. Az. Time Alt. Az.
22 Sep - 01:20:27 10° SSW 01:38:59 33° SSE 01:55:48 10° E visible
22 Sep - 03:41:13 10° SW 04:02:45 48° S 04:18:38 10° ESE visible
22 Sep - 06:06:25 10° WSW 06:26:10 46° SSW 06:38:39 10° SE visible
22 Sep - 08:34:06 10° W 08:46:56 26° SW 08:55:32 10° S daylight
22 Sep - 23:25:54 10° SSE 23:37:30 17° SE 23:49:18 10° E visible
23 Sep - 01:40:05 10° SSW 01:59:44 38° SSE 02:17:19 10° E visible
23 Sep - 04:02:01 10° WSW 04:23:47 50° S 04:39:33 10° ESE visible
23 Sep - 06:27:47 10° W 06:46:56 43° SSW 06:59:06 10° SE visible
23 Sep - 08:56:20 10° W 09:07:07 20° SW 09:14:49 10° S daylight
23 Sep - 23:43:18 10° S 23:57:47 22° SE 00:12:40 10° E visible
24 Sep - 02:00:06 10° SW 02:20:34 43° SSE 02:38:37 10° E visible
24 Sep - 04:23:00 10° WSW 04:44:48 51° S 05:00:23 10° ESE visible
24 Sep - 06:49:15 10° W 07:07:35 39° SSW 07:19:24 10° SE daylight
24 Sep - 09:19:17 10° W 09:27:08 15° SW 09:33:18 10° SSW daylight
25 Sep - 00:01:50 10° S 00:18:10 28° SE 00:35:03 10° E visible
25 Sep - 02:20:25 10° SW 02:41:29 47° SSE 02:59:48 10° E visible
25 Sep - 04:44:06 10° WSW 05:05:48 51° S 05:21:07 10° ESE visible
25 Sep - 07:10:52 10° W 07:28:05 34° SSW 07:39:28 10° SSE daylight
25 Sep - 09:45:03 10° WSW 09:47:03 10° WSW 09:48:56 10° SW daylight
25 Sep - 22:12:42 10° SE 22:17:39 11° ESE 22:22:48 10° ESE visible
26 Sep - 00:21:02 10° SSW 00:38:41 33° SE 00:56:56 10° E visible
26 Sep - 02:40:59 10° SW 03:02:30 50° SSE 03:20:52 10° ESE visible
26 Sep - 05:05:19 10° WSW 05:26:43 49° SSW 05:41:44 10° SE visible
26 Sep - 07:32:40 10° W 07:48:27 29° SW 07:59:14 10° SSE daylight
26 Sep - 22:27:06 10° SSE 22:37:40 17° SE 22:49:15 10° E visible
27 Sep - 00:40:42 10° SSW 00:59:19 39° SSE 01:18:31 10° E visible
27 Sep - 03:01:44 10° WSW 03:23:32 52° S 03:41:50 10° ESE visible
27 Sep - 05:26:39 10° W 05:47:34 46° SSW 06:02:14 10° SE visible
27 Sep - 07:54:47 10° W 08:08:39 24° SW 08:18:36 10° S daylight
27 Sep - 22:44:36 10° S 22:57:47 22° SE 23:12:43 10° E visible
28 Sep - 01:00:44 10° SW 01:20:04 43° SSE 01:39:54 10° E visible
28 Sep - 03:22:39 10° WSW 03:44:36 53° S 04:02:44 10° ESE visible
28 Sep - 05:48:03 10° W 06:08:16 42° SSW 06:22:32 10° SE visible
28 Sep - 08:17:29 10° W 08:28:42 19° SW 08:37:19 10° SSW daylight
28 Sep - 23:03:13 10° S 23:18:02 28° SE 23:35:12 10° E visible
29 Sep - 01:21:02 10° SW 01:40:56 48° SSE 02:01:09 10° E visible
29 Sep - 03:43:42 10° WSW 04:05:38 52° S 04:23:31 10° ESE visible
29 Sep - 06:09:37 10° W 06:28:52 37° SSW 06:42:37 10° SSE visible
29 Sep - 08:41:28 10° W 08:48:38 13° WSW 08:54:42 10° SSW daylight
29 Sep - 23:22:29 10° SSW 23:38:24 33° SE 23:57:10 10° E visible
30 Sep - 01:41:34 10° SW 02:01:53 51° SSE 02:22:18 10° E visible
30 Sep - 04:04:50 10° W 04:26:38 51° SSW 04:44:11 10° SE visible
30 Sep - 06:31:21 10° W 06:49:17 32° SW 07:02:24 10° SSE visible
30 Sep - 21:29:22 10° SSE 21:38:06 15° SE 21:48:09 10° E visible
30 Sep - 23:42:11 10° SSW 23:58:55 38° SSE 00:18:50 10° E visible
01 Oct - 02:02:16 10° WSW 02:22:55 53° S 02:43:21 10° ESE visible
01 Oct - 04:26:05 10° W 04:47:32 48° SSW 05:04:42 10° SE visible
01 Oct - 06:53:23 10° W 07:09:33 27° SW 07:21:47 10° S daylight
01 Oct - 21:46:49 10° S 21:58:05 21° SE 22:11:52 10° E visible
